• en France
  • Liste des pays
  • À 7 jours
  • Température de l'eau
  • Carte satellitaire
  • Carte météo
  • Widgets météo
  • user-avatar
    Se connecter

    Météo par heure à Vladimiro-Konstantinovka

    Ce jour, 22 Mai, Mardi

    Heure Température Précipitation Vent Pression Humidité
    00:00 +12°C° 0 mm 5 m/s 753 mmHg 65%
    01:00 +12°C° 0 mm 4 m/s 753 mmHg 65%
    02:00 +11°C° 0 mm 4 m/s 753 mmHg 65%
    03:00 +11°C° 0 mm 4 m/s 753 mmHg 65%
    04:00 +11°C° 0,1 mm 4 m/s 753 mmHg 68%
    05:00 +11°C° 0,1 mm 4 m/s 754 mmHg 71%
    06:00 +9°C° 0,1 mm 5 m/s 754 mmHg 74%
    07:00 +11°C° 0,6 mm 4 m/s 754 mmHg 77%
    08:00 +11°C° 0,6 mm 4 m/s 754 mmHg 79%
    09:00 +11°C° 0,6 mm 4 m/s 754 mmHg 82%
    10:00 +13°C° 0,1 mm 4 m/s 754 mmHg 79%
    11:00 +15°C° 0,1 mm 4 m/s 754 mmHg 76%
    12:00 +17°C° 0,1 mm 4 m/s 754 mmHg 73%
    13:00 +18°C° 0 mm 4 m/s 754 mmHg 72%
    14:00 +19°C° 0 mm 5 m/s 754 mmHg 71%
    15:00 +20°C° 0 mm 5 m/s 754 mmHg 70%
    16:00 +20°C° 0 mm 4 m/s 754 mmHg 72%
    17:00 +20°C° 0 mm 3 m/s 753 mmHg 73%
    18:00 +20°C° 0 mm 3 m/s 753 mmHg 75%
    19:00 +19°C° 0,1 mm 3 m/s 753 mmHg 79%
    20:00 +18°C° 0,1 mm 3 m/s 753 mmHg 82%
    21:00 +17°C° 0,1 mm 3 m/s 753 mmHg 86%
    22:00 +17°C° 0,1 mm 3 m/s 753 mmHg 87%
    23:00 +16°C° 0,1 mm 3 m/s 753 mmHg 88%

    Demain, 23 Mai, Mercredi

    Heure Température Précipitation Vent Pression Humidité
    00:00 +14°C° 0,1 mm 3 m/s 753 mmHg 89%
    01:00 +14°C° 0,2 mm 3 m/s 753 mmHg 90%
    02:00 +14°C° 0,2 mm 3 m/s 753 mmHg 91%
    03:00 +14°C° 0,2 mm 2 m/s 753 mmHg 91%
    04:00 +13°C° 0,7 mm 3 m/s 753 mmHg 91%
    05:00 +14°C° 0,7 mm 3 m/s 753 mmHg 91%
    06:00 +14°C° 0,7 mm 3 m/s 753 mmHg 91%
    07:00 +16°C° 0,3 mm 3 m/s 753 mmHg 87%
    08:00 +17°C° 0,3 mm 3 m/s 753 mmHg 83%
    09:00 +19°C° 0,3 mm 3 m/s 753 mmHg 78%
    10:00 +20°C° 0 mm 3 m/s 753 mmHg 74%
    11:00 +21°C° 0 mm 3 m/s 752 mmHg 69%
    12:00 +24°C° 0 mm 3 m/s 752 mmHg 65%
    13:00 +24°C° 0 mm 3 m/s 752 mmHg 66%
    14:00 +24°C° 0 mm 3 m/s 752 mmHg 67%
    15:00 +24°C° 0 mm 3 m/s 751 mmHg 68%
    16:00 +24°C° 0,1 mm 3 m/s 751 mmHg 71%
    17:00 +22°C° 0,1 mm 3 m/s 751 mmHg 74%
    18:00 +23°C° 0,1 mm 2 m/s 751 mmHg 77%
    19:00 +20°C° 0,1 mm 2 m/s 750 mmHg 81%
    20:00 +19°C° 0,1 mm 2 m/s 750 mmHg 86%
    21:00 +17°C° 0,1 mm 2 m/s 750 mmHg 91%
    22:00 +17°C° 0,1 mm 2 m/s 750 mmHg 91%
    23:00 +16°C° 0,1 mm 2 m/s 750 mmHg 91%

    Après-demain, 24 Mai, Jeudi

    Heure Température Précipitation Vent Pression Humidité
    00:00 +16°C° 0,1 mm 2 m/s 750 mmHg 92%
    01:00 +15°C° 0 mm 1 m/s 750 mmHg 92%
    02:00 +15°C° 0 mm 1 m/s 749 mmHg 92%
    03:00 +15°C° 0 mm 1 m/s 749 mmHg 92%
    04:00 +15°C° 0,1 mm 1 m/s 749 mmHg 91%
    05:00 +16°C° 0,1 mm 1 m/s 749 mmHg 90%
    06:00 +18°C° 0,1 mm 1 m/s 749 mmHg 89%
    07:00 +19°C° 0 mm 1 m/s 749 mmHg 84%
    08:00 +20°C° 0 mm 1 m/s 749 mmHg 80%
    09:00 +22°C° 0 mm 1 m/s 749 mmHg 75%
    10:00 +22°C° 0,1 mm 1 m/s 749 mmHg 72%
    11:00 +23°C° 0,1 mm 1 m/s 748 mmHg 69%
    12:00 +24°C° 0,1 mm 2 m/s 748 mmHg 66%
    13:00 +24°C° 0,5 mm 2 m/s 748 mmHg 65%
    14:00 +25°C° 0,5 mm 2 m/s 748 mmHg 64%
    15:00 +25°C° 0,5 mm 2 m/s 747 mmHg 63%
    16:00 +24°C° 0,6 mm 2 m/s 747 mmHg 67%
    17:00 +24°C° 0,6 mm 2 m/s 747 mmHg 71%
    18:00 +23°C° 0,6 mm 1 m/s 747 mmHg 75%
    19:00 +22°C° 0,4 mm 1 m/s 747 mmHg 78%
    20:00 +20°C° 0,4 mm 1 m/s 747 mmHg 82%
    21:00 +19°C° 0,4 mm 1 m/s 747 mmHg 85%
    22:00 +17°C° 0,1 mm 2 m/s 747 mmHg 87%
    23:00 +17°C° 0,1 mm 2 m/s 747 mmHg 89%

    25 Mai, Vendredi

    Heure Température Précipitation Vent Pression Humidité
    00:00 +16°C° 0,1 mm 2 m/s 747 mmHg 91%
    01:00 +16°C° 0,1 mm 3 m/s 748 mmHg 92%
    02:00 +14°C° 0,1 mm 4 m/s 748 mmHg 94%
    03:00 +14°C° 0,1 mm 5 m/s 748 mmHg 95%
    04:00 +14°C° 0 mm 6 m/s 749 mmHg 93%
    05:00 +13°C° 0 mm 6 m/s 749 mmHg 92%
    06:00 +12°C° 0 mm 7 m/s 750 mmHg 90%
    07:00 +12°C° 0 mm 7 m/s 751 mmHg 85%
    08:00 +14°C° 0 mm 7 m/s 751 mmHg 80%
    09:00 +14°C° 0 mm 7 m/s 752 mmHg 75%
    10:00 +15°C° 0 mm 7 m/s 752 mmHg 69%
    11:00 +16°C° 0 mm 7 m/s 752 mmHg 63%
    12:00 +17°C° 0 mm 6 m/s 753 mmHg 56%
    13:00 +17°C° 0 mm 6 m/s 753 mmHg 55%
    14:00 +17°C° 0 mm 6 m/s 753 mmHg 53%
    15:00 +17°C° 0 mm 6 m/s 753 mmHg 52%
    16:00 +16°C° 0 mm 6 m/s 754 mmHg 54%
    17:00 +16°C° 0 mm 6 m/s 754 mmHg 57%
    18:00 +15°C° 0 mm 5 m/s 754 mmHg 60%
    19:00 +14°C° 0 mm 5 m/s 755 mmHg 62%
    20:00 +12°C° 0 mm 4 m/s 755 mmHg 64%
    21:00 +11°C° 0 mm 4 m/s 756 mmHg 66%
    22:00 +10°C° 0 mm 4 m/s 756 mmHg 67%
    23:00 +9°C° 0 mm 3 m/s 756 mmHg 67%

    26 Mai, Samedi

    Heure Température Précipitation Vent Pression Humidité
    00:00 +8°C° 0 mm 3 m/s 757 mmHg 68%
    01:00 +8°C° 0 mm 3 m/s 757 mmHg 69%
    02:00 +7°C° 0 mm 3 m/s 758 mmHg 71%
    03:00 +5°C° 0 mm 3 m/s 758 mmHg 72%
    04:00 +7°C° 0 mm 3 m/s 758 mmHg 71%
    05:00 +7°C° 0 mm 3 m/s 759 mmHg 70%
    06:00 +8°C° 0 mm 3 m/s 759 mmHg 69%
    07:00 +10°C° 0 mm 3 m/s 760 mmHg 63%
    08:00 +11°C° 0 mm 3 m/s 760 mmHg 57%
    09:00 +13°C° 0 mm 4 m/s 760 mmHg 51%
    10:00 +14°C° 0 mm 4 m/s 760 mmHg 49%
    11:00 +15°C° 0 mm 4 m/s 760 mmHg 47%
    12:00 +17°C° 0 mm 4 m/s 760 mmHg 45%
    13:00 +18°C° 0 mm 3 m/s 760 mmHg 45%
    14:00 +18°C° 0 mm 3 m/s 760 mmHg 45%
    15:00 +18°C° 0 mm 3 m/s 760 mmHg 45%
    16:00 +18°C° 0 mm 3 m/s 760 mmHg 48%
    17:00 +18°C° 0 mm 2 m/s 759 mmHg 52%
    18:00 +18°C° 0 mm 2 m/s 759 mmHg 55%
    19:00 +16°C° 0 mm 2 m/s 759 mmHg 60%
    20:00 +14°C° 0 mm 2 m/s 759 mmHg 65%
    21:00 +12°C° 0 mm 1 m/s 760 mmHg 70%
    22:00 +12°C° 0 mm 1 m/s 760 mmHg 71%
    23:00 +11°C° 0 mm 1 m/s 760 mmHg 73%

    27 Mai, Dimanche

    Heure Température Précipitation Vent Pression Humidité
    00:00 +10°C° 0 mm 1 m/s 760 mmHg 75%
    01:00 +10°C° 0 mm 1 m/s 760 mmHg 76%
    02:00 +10°C° 0 mm 1 m/s 760 mmHg 78%
    03:00 +9°C° 0 mm 1 m/s 760 mmHg 79%
    04:00 +10°C° 0 mm 1 m/s 760 mmHg 78%
    05:00 +11°C° 0 mm 1 m/s 760 mmHg 76%
    06:00 +11°C° 0 mm 1 m/s 760 mmHg 75%
    07:00 +13°C° 0 mm 1 m/s 760 mmHg 69%
    08:00 +15°C° 0 mm 1 m/s 760 mmHg 63%
    09:00 +18°C° 0 mm 1 m/s 760 mmHg 57%
    10:00 +18°C° 0 mm 2 m/s 760 mmHg 54%
    11:00 +18°C° 0 mm 2 m/s 759 mmHg 50%
    12:00 +19°C° 0 mm 2 m/s 759 mmHg 47%
    13:00 +20°C° 0 mm 2 m/s 759 mmHg 47%
    14:00 +20°C° 0 mm 2 m/s 758 mmHg 47%
    15:00 +21°C° 0 mm 2 m/s 758 mmHg 47%
    16:00 +20°C° 0 mm 2 m/s 757 mmHg 50%
    17:00 +20°C° 0 mm 2 m/s 757 mmHg 54%
    18:00 +20°C° 0 mm 2 m/s 757 mmHg 58%
    19:00 +19°C° 0 mm 1 m/s 757 mmHg 62%
    20:00 +16°C° 0 mm 1 m/s 757 mmHg 67%
    21:00 +14°C° 0 mm 1 m/s 756 mmHg 71%
    22:00 +14°C° 0 mm 1 m/s 756 mmHg 73%
    23:00 +13°C° 0 mm 1 m/s 757 mmHg 74%
    Voir plus